• In Russia
  • List of Countries
  • For 7 days
  • Water Temperature
  • Satellite Maps
  • Weather Map
  • Weather Widgets
  • user-avatar
    Login

    Hourly Weather Ischgl

    Today, 20 September, Wednesday

    Time Temperature Precipitation Wind Pressure Humidity
    00:00 -5°C° 0.2 mm 2 mps 573 mmHg 96%
    01:00 -5°C° 0.2 mm 2 mps 573 mmHg 96%
    02:00 -5°C° 0.1 mm 2 mps 573 mmHg 96%
    03:00 -5°C° 0.1 mm 2 mps 573 mmHg 96%
    04:00 -5°C° 0.1 mm 2 mps 573 mmHg 97%
    05:00 -5°C° 0.1 mm 2 mps 573 mmHg 96%
    06:00 -5°C° 0.1 mm 2 mps 573 mmHg 95%
    07:00 -4°C° 0.1 mm 2 mps 573 mmHg 95%
    08:00 -4°C° 0 mm 2 mps 574 mmHg 91%
    09:00 -3°C° 0 mm 2 mps 574 mmHg 87%
    10:00 -2°C° 0 mm 2 mps 575 mmHg 84%
    11:00 -1°C° 0 mm 2 mps 575 mmHg 81%
    12:00 +1°C° 0 mm 2 mps 575 mmHg 79%
    13:00 +1°C° 0 mm 2 mps 575 mmHg 77%
    14:00 +1°C° 0 mm 2 mps 575 mmHg 76%
    15:00 +1°C° 0 mm 2 mps 575 mmHg 75%
    16:00 +1°C° 0 mm 2 mps 575 mmHg 74%
    17:00 -2°C° 0 mm 2 mps 574 mmHg 80%
    18:00 -1°C° 0 mm 1 mps 574 mmHg 86%
    19:00 -3°C° 0 mm 1 mps 573 mmHg 93%
    20:00 -4°C° 0 mm 1 mps 573 mmHg 93%
    21:00 -4°C° 0 mm 1 mps 573 mmHg 93%
    22:00 -4°C° 0 mm 1 mps 573 mmHg 93%
    23:00 -6°C° 0 mm 1 mps 573 mmHg 91%

    Tomorrow, 21 September, Thursday

    Time Temperature Precipitation Wind Pressure Humidity
    00:00 -6°C° 0 mm 1 mps 573 mmHg 89%
    01:00 -6°C° 0 mm 1 mps 573 mmHg 87%
    02:00 -6°C° 0 mm 1 mps 573 mmHg 82%
    03:00 -6°C° 0 mm 1 mps 573 mmHg 78%
    04:00 -6°C° 0 mm 1 mps 573 mmHg 73%
    05:00 -6°C° 0 mm 1 mps 573 mmHg 69%
    06:00 -4°C° 0 mm 1 mps 573 mmHg 66%
    07:00 -3°C° 0 mm 1 mps 574 mmHg 63%
    08:00 0°C° 0 mm 1 mps 575 mmHg 61%
    09:00 +3°C° 0 mm 1 mps 576 mmHg 60%
    10:00 +4°C° 0 mm 0 mps 577 mmHg 59%
    11:00 +6°C° 0 mm 1 mps 577 mmHg 58%
    12:00 +7°C° 0 mm 1 mps 578 mmHg 57%
    13:00 +8°C° 0 mm 1 mps 578 mmHg 57%
    14:00 +8°C° 0 mm 1 mps 577 mmHg 58%
    15:00 +7°C° 0 mm 1 mps 577 mmHg 60%
    16:00 +7°C° 0 mm 1 mps 577 mmHg 62%
    17:00 +5°C° 0 mm 1 mps 576 mmHg 68%
    18:00 +2°C° 0 mm 1 mps 575 mmHg 74%
    19:00 0°C° 0 mm 1 mps 574 mmHg 80%
    20:00 0°C° 0 mm 1 mps 574 mmHg 78%
    21:00 0°C° 0 mm 1 mps 574 mmHg 77%
    22:00 0°C° 0 mm 1 mps 575 mmHg 75%
    23:00 0°C° 0 mm 1 mps 575 mmHg 73%

    Day after tomorrow, 22 September, Friday

    Time Temperature Precipitation Wind Pressure Humidity
    00:00 0°C° 0 mm 1 mps 575 mmHg 70%
    01:00 0°C° 0 mm 1 mps 575 mmHg 68%
    02:00 0°C° 0 mm 1 mps 575 mmHg 68%
    03:00 0°C° 0 mm 1 mps 575 mmHg 67%
    04:00 0°C° 0 mm 1 mps 575 mmHg 66%
    05:00 0°C° 0 mm 1 mps 575 mmHg 66%
    06:00 +1°C° 0 mm 1 mps 575 mmHg 65%
    07:00 +1°C° 0 mm 1 mps 576 mmHg 64%
    08:00 +3°C° 0 mm 1 mps 577 mmHg 62%
    09:00 +6°C° 0 mm 1 mps 578 mmHg 60%
    10:00 +8°C° 0 mm 1 mps 579 mmHg 58%
    11:00 +9°C° 0 mm 1 mps 579 mmHg 57%
    12:00 +9°C° 0 mm 1 mps 580 mmHg 55%
    13:00 +10°C° 0 mm 1 mps 580 mmHg 54%
    14:00 +10°C° 0 mm 1 mps 580 mmHg 56%
    15:00 +8°C° 0 mm 2 mps 580 mmHg 58%
    16:00 +8°C° 0 mm 2 mps 580 mmHg 61%
    17:00 +7°C° 0 mm 1 mps 579 mmHg 69%
    18:00 +4°C° 0 mm 1 mps 578 mmHg 78%
    19:00 +2°C° 0 mm 1 mps 577 mmHg 86%
    20:00 +1°C° 0 mm 1 mps 577 mmHg 87%
    21:00 +1°C° 0 mm 1 mps 577 mmHg 87%
    22:00 +1°C° 0 mm 1 mps 577 mmHg 87%
    23:00 +1°C° 0 mm 1 mps 577 mmHg 86%

    23 September, Saturday

    Time Temperature Precipitation Wind Pressure Humidity
    00:00 +1°C° 0 mm 1 mps 577 mmHg 85%
    01:00 0°C° 0 mm 1 mps 577 mmHg 85%
    02:00 0°C° 0 mm 1 mps 577 mmHg 83%
    03:00 0°C° 0 mm 1 mps 577 mmHg 82%
    04:00 0°C° 0 mm 1 mps 577 mmHg 81%
    05:00 +1°C° 0 mm 1 mps 577 mmHg 79%
    06:00 +1°C° 0 mm 1 mps 577 mmHg 76%
    07:00 +2°C° 0 mm 1 mps 578 mmHg 74%
    08:00 +4°C° 0 mm 1 mps 579 mmHg 67%
    09:00 +6°C° 0 mm 1 mps 580 mmHg 60%
    10:00 +9°C° 0 mm 1 mps 581 mmHg 54%
    11:00 +9°C° 0 mm 1 mps 581 mmHg 53%
    12:00 +10°C° 0 mm 1 mps 581 mmHg 51%
    13:00 +11°C° 0 mm 1 mps 581 mmHg 50%
    14:00 +10°C° 0 mm 1 mps 581 mmHg 53%
    15:00 +10°C° 0 mm 1 mps 581 mmHg 56%
    16:00 +9°C° 0 mm 1 mps 580 mmHg 59%
    17:00 +7°C° 0 mm 1 mps 579 mmHg 69%
    18:00 +4°C° 0 mm 1 mps 578 mmHg 79%
    19:00 +1°C° 0 mm 0 mps 577 mmHg 89%
    20:00 +2°C° 0 mm 1 mps 577 mmHg 88%
    21:00 +1°C° 0 mm 1 mps 577 mmHg 88%
    22:00 +1°C° 0 mm 1 mps 577 mmHg 87%
    23:00 +1°C° 0 mm 1 mps 577 mmHg 87%

    24 September, Sunday

    Time Temperature Precipitation Wind Pressure Humidity
    00:00 +1°C° 0 mm 1 mps 576 mmHg 86%
    01:00 +1°C° 0 mm 1 mps 576 mmHg 85%
    02:00 +1°C° 0 mm 1 mps 576 mmHg 84%
    03:00 +1°C° 0 mm 1 mps 576 mmHg 84%
    04:00 0°C° 0 mm 1 mps 576 mmHg 84%
    05:00 +1°C° 0 mm 1 mps 576 mmHg 83%
    06:00 +1°C° 0 mm 1 mps 576 mmHg 82%
    07:00 +2°C° 0 mm 1 mps 577 mmHg 81%
    08:00 +4°C° 0 mm 1 mps 578 mmHg 72%
    09:00 +6°C° 0 mm 1 mps 579 mmHg 62%
    10:00 +9°C° 0 mm 1 mps 580 mmHg 53%
    11:00 +9°C° 0 mm 1 mps 581 mmHg 51%
    12:00 +10°C° 0 mm 1 mps 581 mmHg 49%
    13:00 +10°C° 0 mm 2 mps 581 mmHg 47%
    14:00 +9°C° 0 mm 2 mps 581 mmHg 49%
    15:00 +9°C° 0 mm 2 mps 580 mmHg 52%
    16:00 +9°C° 0 mm 2 mps 580 mmHg 55%
    17:00 +6°C° 0 mm 2 mps 579 mmHg 66%
    18:00 +5°C° 0 mm 1 mps 578 mmHg 77%
    19:00 +3°C° 0 mm 1 mps 577 mmHg 88%
    20:00 +2°C° 0 mm 1 mps 577 mmHg 90%
    21:00 +2°C° 0 mm 1 mps 578 mmHg 92%
    22:00 +2°C° 0 mm 1 mps 578 mmHg 93%
    23:00 +1°C° 0 mm 1 mps 577 mmHg 93%

    25 September, Monday

    Time Temperature Precipitation Wind Pressure Humidity
    00:00 +1°C° 0 mm 1 mps 577 mmHg 93%
    01:00 +1°C° 0 mm 1 mps 577 mmHg 93%
    02:00 0°C° 0 mm 1 mps 577 mmHg 91%
    03:00 0°C° 0 mm 1 mps 576 mmHg 89%
    04:00 0°C° 0 mm 1 mps 576 mmHg 87%
    05:00 0°C° 0 mm 1 mps 576 mmHg 83%
    06:00 0°C° 0 mm 1 mps 577 mmHg 79%
    07:00 +1°C° 0 mm 1 mps 577 mmHg 76%
    08:00 +3°C° 0 mm 1 mps 578 mmHg 66%
    09:00 +6°C° 0 mm 1 mps 579 mmHg 57%
    10:00 +9°C° 0 mm 1 mps 580 mmHg 47%
    11:00 +9°C° 0 mm 1 mps 581 mmHg 45%
    12:00 +10°C° 0 mm 1 mps 581 mmHg 43%
    13:00 +11°C° 0 mm 1 mps 581 mmHg 41%
    14:00 +10°C° 0 mm 1 mps 580 mmHg 44%
    15:00 +10°C° 0 mm 1 mps 580 mmHg 47%
    16:00 +9°C° 0 mm 2 mps 580 mmHg 50%
    17:00 +7°C° 0 mm 1 mps 578 mmHg 62%
    18:00 +4°C° 0 mm 1 mps 577 mmHg 74%
    19:00 +1°C° 0 mm 0 mps 576 mmHg 86%
    20:00 +1°C° 0 mm 0 mps 576 mmHg 86%
    21:00 +2°C° 0 mm 1 mps 576 mmHg 86%
    22:00 +2°C° 0 mm 1 mps 576 mmHg 86%
    23:00 +2°C° 0 mm 1 mps 576 mmHg 86%
    Show more